Time,TemperatureF,DewpointF,PressureIn,WindDirection,WindDirectionDegrees,WindSpeedMPH,WindSpeedGustMPH,Humidity,HourlyPrecipIn,Conditions,Clouds,dailyrainin,SoftwareType,DateUTC
2013-06-29 00:02:00,80.8,76.5,29.81,WSW,242,3.0,5.0,87,0.00,,,0.00,meteohub,2013-06-29 05:02:00,
2013-06-29 00:07:00,80.6,76.3,29.81,SW,228,2.0,5.0,87,0.00,,,0.00,meteohub,2013-06-29 05:07:00,
2013-06-29 00:12:00,80.4,76.1,29.81,SW,225,2.0,5.0,87,0.00,,,0.00,meteohub,2013-06-29 05:12:00,
2013-06-29 00:17:00,80.4,76.1,29.81,SSW,198,3.0,5.0,87,0.00,,,0.00,meteohub,2013-06-29 05:17:00,
2013-06-29 00:22:00,80.4,76.1,29.81,SW,225,2.0,5.0,87,0.00,,,0.00,meteohub,2013-06-29 05:22:00,
2013-06-29 00:27:00,80.4,76.1,29.81,SSW,211,3.0,6.0,87,0.00,,,0.00,meteohub,2013-06-29 05:27:00,
2013-06-29 00:32:00,80.4,76.1,29.80,SSW,212,2.0,6.0,87,0.00,,,0.00,meteohub,2013-06-29 05:32:00,
2013-06-29 00:37:00,80.4,76.1,29.80,SW,214,3.0,6.0,87,0.00,,,0.00,meteohub,2013-06-29 05:37:00,
2013-06-29 00:42:00,80.4,76.1,29.80,West,271,3.0,7.0,87,0.00,,,0.00,meteohub,2013-06-29 05:42:00,
2013-06-29 00:47:00,80.2,76.1,29.80,WSW,251,3.0,7.0,87,0.00,,,0.00,meteohub,2013-06-29 05:47:00,
2013-06-29 00:52:00,80.1,76.1,29.80,WSW,254,2.0,7.0,88,0.00,,,0.00,meteohub,2013-06-29 05:52:00,
2013-06-29 00:57:00,80.1,76.1,29.80,WSW,241,2.0,5.0,88,0.00,,,0.00,meteohub,2013-06-29 05:57:00,
2013-06-29 01:02:00,80.1,76.1,29.80,SSW,211,2.0,5.0,88,0.00,,,0.00,meteohub,2013-06-29 06:02:00,
2013-06-29 01:07:00,79.9,75.9,29.80,SW,223,3.0,6.0,88,0.00,,,0.00,meteohub,2013-06-29 06:07:00,
2013-06-29 01:12:00,79.9,75.9,29.81,WSW,243,2.0,6.0,88,0.00,,,0.00,meteohub,2013-06-29 06:12:00,
2013-06-29 01:17:00,79.9,75.9,29.80,WSW,243,3.0,5.0,88,0.00,,,0.00,meteohub,2013-06-29 06:17:00,
2013-06-29 01:22:00,79.9,76.3,29.80,WSW,243,1.0,5.0,89,0.00,,,0.00,meteohub,2013-06-29 06:22:00,
2013-06-29 01:27:00,79.9,76.3,29.80,WSW,243,1.0,5.0,89,0.00,,,0.00,meteohub,2013-06-29 06:27:00,
2013-06-29 01:32:00,79.9,76.3,29.80,WSW,244,1.0,5.0,89,0.00,,,0.00,meteohub,2013-06-29 06:32:00,
2013-06-29 01:37:00,79.9,76.3,29.80,SSW,205,3.0,5.0,89,0.00,,,0.00,meteohub,2013-06-29 06:37:00,
2013-06-29 01:42:00,79.9,76.3,29.79,SSW,200,3.0,5.0,89,0.00,,,0.00,meteohub,2013-06-29 06:42:00,
2013-06-29 01:47:00,79.7,76.1,29.80,SW,223,3.0,5.0,89,0.00,,,0.00,meteohub,2013-06-29 06:47:00,
2013-06-29 01:52:00,79.5,75.9,29.79,SW,223,2.0,5.0,89,0.00,,,0.00,meteohub,2013-06-29 06:52:00,
2013-06-29 01:57:00,79.5,75.9,29.79,SW,228,4.0,4.0,89,0.00,,,0.00,meteohub,2013-06-29 06:57:00,
2013-06-29 02:02:00,79.5,75.9,29.79,SW,236,1.0,4.0,89,0.00,,,0.00,meteohub,2013-06-29 07:02:00,
2013-06-29 02:07:00,79.3,75.7,29.79,SW,236,2.0,4.0,89,0.00,,,0.00,meteohub,2013-06-29 07:07:00,
2013-06-29 02:12:00,79.3,75.7,29.79,SSW,200,3.0,4.0,89,0.00,,,0.00,meteohub,2013-06-29 07:12:00,
2013-06-29 02:17:00,79.3,75.7,29.78,SW,222,1.0,4.0,89,0.00,,,0.00,meteohub,2013-06-29 07:17:00,
2013-06-29 02:22:00,79.3,75.7,29.78,SSW,208,0.0,7.0,89,0.00,,,0.00,meteohub,2013-06-29 07:22:00,
2013-06-29 02:27:00,79.3,75.7,29.78,WSW,255,1.0,7.0,89,0.00,,,0.00,meteohub,2013-06-29 07:27:00,
2013-06-29 02:32:00,79.3,75.7,29.78,WSW,255,2.0,7.0,89,0.00,,,0.00,meteohub,2013-06-29 07:32:00,
2013-06-29 02:37:00,79.3,76.1,29.78,WSW,250,2.0,5.0,90,0.00,,,0.00,meteohub,2013-06-29 07:37:00,
2013-06-29 02:42:00,79.3,76.1,29.78,WSW,257,4.0,5.0,90,0.00,,,0.00,meteohub,2013-06-29 07:42:00,
2013-06-29 02:47:00,79.2,75.9,29.78,WSW,252,3.0,5.0,90,0.00,,,0.00,meteohub,2013-06-29 07:47:00,
2013-06-29 02:52:00,79.2,75.9,29.77,SW,234,5.0,5.0,90,0.00,,,0.00,meteohub,2013-06-29 07:52:00,
2013-06-29 02:57:00,79.2,75.9,29.77,WSW,243,1.0,7.0,90,0.00,,,0.00,meteohub,2013-06-29 07:57:00,
2013-06-29 03:02:00,79.2,75.9,29.77,WSW,242,1.0,7.0,90,0.00,,,0.00,meteohub,2013-06-29 08:02:00,
2013-06-29 03:07:00,79.2,75.9,29.77,WSW,242,2.0,7.0,90,0.00,,,0.00,meteohub,2013-06-29 08:07:00,
2013-06-29 03:12:00,79.3,76.1,29.78,WSW,242,2.0,5.0,90,0.00,,,0.00,meteohub,2013-06-29 08:12:00,
2013-06-29 03:17:00,79.3,76.1,29.79,WSW,245,1.0,5.0,90,0.00,,,0.00,meteohub,2013-06-29 08:17:00,
2013-06-29 03:22:00,79.3,76.1,29.79,WSW,245,1.0,4.0,90,0.00,,,0.00,meteohub,2013-06-29 08:22:00,
2013-06-29 03:27:00,79.5,76.3,29.79,WSW,247,0.0,4.0,90,0.00,,,0.00,meteohub,2013-06-29 08:27:00,
2013-06-29 03:32:00,79.5,76.3,29.79,WSW,247,1.0,4.0,90,0.00,,,0.00,meteohub,2013-06-29 08:32:00,
2013-06-29 03:37:00,79.5,76.3,29.79,WSW,247,0.0,4.0,90,0.00,,,0.00,meteohub,2013-06-29 08:37:00,
2013-06-29 03:42:00,79.5,76.3,29.79,WSW,248,0.0,3.0,90,0.00,,,0.00,meteohub,2013-06-29 08:42:00,
2013-06-29 03:47:00,79.5,76.3,29.79,WSW,247,0.0,3.0,90,0.00,,,0.00,meteohub,2013-06-29 08:47:00,
2013-06-29 03:52:00,79.5,76.3,29.79,WSW,248,1.0,1.0,90,0.00,,,0.00,meteohub,2013-06-29 08:52:00,
2013-06-29 03:57:00,79.5,76.3,29.79,WSW,247,1.0,1.0,90,0.00,,,0.00,meteohub,2013-06-29 08:57:00,
2013-06-29 04:02:00,79.3,76.5,29.78,WSW,248,1.0,2.0,91,0.00,,,0.00,meteohub,2013-06-29 09:02:00,
2013-06-29 04:07:00,79.3,76.5,29.78,WSW,247,2.0,2.0,91,0.00,,,0.00,meteohub,2013-06-29 09:07:00,
2013-06-29 04:12:00,79.3,76.5,29.78,South,190,1.0,2.0,91,0.00,,,0.00,meteohub,2013-06-29 09:12:00,
2013-06-29 04:17:00,79.3,76.5,29.79,WSW,246,0.0,5.0,91,0.00,,,0.00,meteohub,2013-06-29 09:17:00,
2013-06-29 04:22:00,79.3,76.5,29.80,WSW,246,0.0,5.0,91,0.00,,,0.00,meteohub,2013-06-29 09:22:00,
2013-06-29 04:27:00,79.3,76.5,29.80,WSW,246,0.0,5.0,91,0.00,,,0.00,meteohub,2013-06-29 09:27:00,
2013-06-29 04:32:00,79.3,76.5,29.79,WSW,246,1.0,1.0,91,0.00,,,0.00,meteohub,2013-06-29 09:32:00,
2013-06-29 04:37:00,79.5,76.6,29.79,NNW,328,3.0,3.0,91,0.00,,,0.00,meteohub,2013-06-29 09:37:00,
2013-06-29 04:42:00,79.3,76.5,29.80,NNE,20,2.0,5.0,91,0.00,,,0.00,meteohub,2013-06-29 09:42:00,
2013-06-29 04:47:00,79.3,76.5,29.79,NNW,330,3.0,5.0,91,0.00,,,0.00,meteohub,2013-06-29 09:47:00,
2013-06-29 04:52:00,79.3,76.8,29.79,North,5,0.0,5.0,92,0.00,,,0.00,meteohub,2013-06-29 09:52:00,
2013-06-29 04:57:00,78.8,75.6,29.80,North,5,8.0,8.0,90,0.00,,,0.00,meteohub,2013-06-29 09:57:00,
2013-06-29 05:02:00,78.3,73.0,29.80,North,5,9.0,14.0,84,0.00,,,0.00,meteohub,2013-06-29 10:02:00,
2013-06-29 05:07:00,77.5,72.3,29.81,NNW,342,8.0,14.0,84,0.00,,,0.00,meteohub,2013-06-29 10:07:00,
2013-06-29 05:12:00,76.6,72.5,29.84,NE,46,3.0,12.0,87,0.06,,,0.00,meteohub,2013-06-29 10:12:00,
2013-06-29 05:17:00,75.4,72.0,29.85,NW,306,7.0,12.0,89,0.13,,,0.13,meteohub,2013-06-29 10:17:00,
2013-06-29 05:22:00,74.1,71.1,29.84,SW,225,3.0,12.0,90,0.29,,,0.29,meteohub,2013-06-29 10:22:00,
2013-06-29 05:27:00,73.2,70.5,29.84,SW,222,10.0,12.0,91,0.32,,,0.30,meteohub,2013-06-29 10:27:00,
2013-06-29 05:32:00,72.3,69.3,29.82,South,169,10.0,15.0,90,0.36,,,0.36,meteohub,2013-06-29 10:32:00,
2013-06-29 05:37:00,71.8,69.1,29.81,SW,232,1.0,15.0,91,0.52,,,0.52,meteohub,2013-06-29 10:37:00,
2013-06-29 05:42:00,71.6,69.1,29.79,WSW,251,3.0,15.0,92,0.64,,,0.58,meteohub,2013-06-29 10:42:00,
2013-06-29 05:47:00,71.8,69.6,29.80,NNE,17,6.0,12.0,93,0.66,,,0.66,meteohub,2013-06-29 10:47:00,
2013-06-29 05:52:00,72.0,69.8,29.80,NNE,14,1.0,9.0,93,0.68,,,0.68,meteohub,2013-06-29 10:52:00,
2013-06-29 05:57:00,71.8,69.6,29.82,SW,222,4.0,7.0,93,0.68,,,0.68,meteohub,2013-06-29 10:57:00,
2013-06-29 06:02:00,71.6,69.4,29.83,SW,232,1.0,7.0,93,0.70,,,0.70,meteohub,2013-06-29 11:02:00,
2013-06-29 06:07:00,71.6,69.4,29.83,SW,231,1.0,9.0,93,0.73,,,0.73,meteohub,2013-06-29 11:07:00,
2013-06-29 06:12:00,71.6,69.8,29.82,WSW,244,3.0,9.0,94,0.66,,,0.74,meteohub,2013-06-29 11:12:00,
2013-06-29 06:17:00,71.8,70.0,29.82,SW,228,4.0,9.0,94,0.70,,,0.92,meteohub,2013-06-29 11:17:00,
2013-06-29 06:22:00,71.8,70.0,29.81,SW,236,8.0,13.0,94,0.72,,,1.01,meteohub,2013-06-29 11:22:00,
2013-06-29 06:27:00,72.0,70.2,29.79,SW,236,9.0,13.0,94,0.80,,,1.12,meteohub,2013-06-29 11:27:00,
2013-06-29 06:32:00,72.0,70.2,29.81,SW,215,9.0,16.0,94,0.88,,,1.28,meteohub,2013-06-29 11:32:00,
2013-06-29 06:37:00,72.1,70.3,29.82,WSW,254,9.0,16.0,94,0.78,,,1.33,meteohub,2013-06-29 11:37:00,
2013-06-29 06:42:00,72.1,70.7,29.81,SSW,200,3.0,16.0,95,0.71,,,1.34,meteohub,2013-06-29 11:42:00,
2013-06-29 06:47:00,72.1,70.7,29.79,SSW,206,3.0,16.0,95,0.68,,,1.34,meteohub,2013-06-29 11:47:00,
2013-06-29 06:52:00,72.3,70.9,29.80,SW,221,0.0,13.0,95,0.66,,,1.34,meteohub,2013-06-29 11:52:00,
2013-06-29 06:57:00,72.5,71.1,29.80,SSW,210,1.0,6.0,95,0.64,,,1.34,meteohub,2013-06-29 11:57:00,
2013-06-29 07:02:00,72.7,71.2,29.81,SSW,210,0.0,6.0,95,0.65,,,1.36,meteohub,2013-06-29 12:02:00,
2013-06-29 07:07:00,72.7,71.2,29.80,SSW,210,0.0,5.0,95,0.63,,,1.36,meteohub,2013-06-29 12:07:00,
2013-06-29 07:12:00,72.9,71.4,29.80,SSW,210,0.0,3.0,95,0.54,,,1.36,meteohub,2013-06-29 12:12:00,
2013-06-29 07:17:00,72.9,71.4,29.81,SSW,210,0.0,3.0,95,0.43,,,1.36,meteohub,2013-06-29 12:17:00,
2013-06-29 07:22:00,73.0,71.6,29.81,SSW,210,3.0,3.0,95,0.33,,,1.36,meteohub,2013-06-29 12:22:00,
2013-06-29 07:27:00,73.0,71.6,29.80,SSW,210,0.0,5.0,95,0.17,,,1.36,meteohub,2013-06-29 12:27:00,
2013-06-29 07:32:00,73.0,71.6,29.80,SSW,210,0.0,5.0,95,0.05,,,1.36,meteohub,2013-06-29 12:32:00,
2013-06-29 07:37:00,73.0,71.6,29.80,SSW,210,2.0,5.0,95,0.03,,,1.36,meteohub,2013-06-29 12:37:00,
2013-06-29 07:42:00,73.2,71.8,29.81,SSW,210,3.0,4.0,95,0.02,,,1.36,meteohub,2013-06-29 12:42:00,
2013-06-29 07:47:00,73.2,71.8,29.81,SSW,209,1.0,4.0,95,0.02,,,1.36,meteohub,2013-06-29 12:47:00,
2013-06-29 07:52:00,73.2,71.8,29.81,SSW,199,3.0,6.0,95,0.02,,,1.36,meteohub,2013-06-29 12:52:00,
2013-06-29 07:57:00,73.2,71.8,29.80,South,183,3.0,7.0,95,0.01,,,1.36,meteohub,2013-06-29 12:57:00,
2013-06-29 08:02:00,73.2,71.8,29.80,SW,221,1.0,7.0,95,0.00,,,1.36,meteohub,2013-06-29 13:02:00,
2013-06-29 08:07:00,73.6,72.1,29.80,SSW,196,0.0,7.0,95,0.00,,,1.36,meteohub,2013-06-29 13:07:00,
2013-06-29 08:12:00,73.6,72.1,29.81,SSW,196,1.0,7.0,95,0.00,,,1.36,meteohub,2013-06-29 13:12:00,
2013-06-29 08:17:00,73.6,72.1,29.81,South,191,4.0,5.0,95,0.00,,,1.36,meteohub,2013-06-29 13:17:00,
2013-06-29 08:22:00,73.6,72.1,29.81,South,191,2.0,5.0,95,0.00,,,1.36,meteohub,2013-06-29 13:22:00,
2013-06-29 08:27:00,73.8,72.3,29.81,South,191,0.0,5.0,95,0.00,,,1.36,meteohub,2013-06-29 13:27:00,
2013-06-29 08:32:00,73.8,72.3,29.82,South,191,2.0,4.0,95,0.00,,,1.36,meteohub,2013-06-29 13:32:00,
2013-06-29 08:37:00,73.8,72.3,29.82,South,191,2.0,3.0,95,0.00,,,1.36,meteohub,2013-06-29 13:37:00,
2013-06-29 08:42:00,73.9,72.5,29.82,South,191,1.0,4.0,95,0.00,,,1.36,meteohub,2013-06-29 13:42:00,
2013-06-29 08:47:00,73.9,72.5,29.82,SW,227,3.0,4.0,95,0.00,,,1.36,meteohub,2013-06-29 13:47:00,
2013-06-29 08:52:00,73.9,72.5,29.83,South,189,3.0,4.0,95,0.00,,,1.36,meteohub,2013-06-29 13:52:00,
2013-06-29 08:57:00,74.1,72.7,29.82,SSW,197,2.0,7.0,95,0.00,,,1.36,meteohub,2013-06-29 13:57:00,
2013-06-29 09:02:00,74.1,72.3,29.82,South,174,3.0,7.0,94,0.00,,,1.36,meteohub,2013-06-29 14:02:00,
2013-06-29 09:07:00,74.1,72.7,29.82,SW,215,2.0,7.0,95,0.00,,,1.36,meteohub,2013-06-29 14:07:00,
2013-06-29 09:12:00,74.3,72.5,29.81,SSW,210,6.0,7.0,94,0.00,,,1.36,meteohub,2013-06-29 14:12:00,
2013-06-29 09:17:00,74.5,72.7,29.81,SSW,206,5.0,7.0,94,0.00,,,1.36,meteohub,2013-06-29 14:17:00,
2013-06-29 09:22:00,74.5,72.7,29.81,SSE,166,2.0,8.0,94,0.00,,,1.36,meteohub,2013-06-29 14:22:00,
2013-06-29 09:27:00,74.7,72.5,29.81,SSW,207,3.0,8.0,93,0.00,,,1.36,meteohub,2013-06-29 14:27:00,
2013-06-29 09:32:00,74.8,72.7,29.81,SW,234,0.0,8.0,93,0.00,,,1.36,meteohub,2013-06-29 14:32:00,
2013-06-29 09:37:00,75.2,73.0,29.80,South,184,4.0,8.0,93,0.00,,,1.36,meteohub,2013-06-29 14:37:00,
2013-06-29 09:42:00,75.6,73.0,29.80,SSW,202,8.0,8.0,92,0.00,,,1.36,meteohub,2013-06-29 14:42:00,
2013-06-29 09:47:00,75.7,73.2,29.81,SSW,213,4.0,8.0,92,0.00,,,1.36,meteohub,2013-06-29 14:47:00,
2013-06-29 09:52:00,76.1,73.2,29.81,South,186,3.0,8.0,91,0.00,,,1.36,meteohub,2013-06-29 14:52:00,
2013-06-29 09:57:00,76.5,73.6,29.81,South,179,3.0,8.0,91,0.00,,,1.36,meteohub,2013-06-29 14:57:00,
2013-06-29 10:02:00,76.8,73.6,29.81,South,175,2.0,8.0,90,0.00,,,1.36,meteohub,2013-06-29 15:02:00,
2013-06-29 10:12:00,77.5,74.1,29.81,SW,215,2.0,7.0,89,0.00,,,1.36,meteohub,2013-06-29 15:12:00,
2013-06-29 10:17:00,77.7,74.3,29.81,South,171,3.0,8.0,89,0.00,,,1.36,meteohub,2013-06-29 15:17:00,
2013-06-29 10:22:00,78.1,74.3,29.81,South,178,1.0,8.0,88,0.00,,,1.36,meteohub,2013-06-29 15:22:00,
2013-06-29 10:27:00,78.4,74.7,29.81,SSW,193,4.0,9.0,88,0.00,,,1.36,meteohub,2013-06-29 15:27:00,
2013-06-29 10:32:00,78.4,74.7,29.81,South,175,3.0,9.0,88,0.00,,,1.36,meteohub,2013-06-29 15:32:00,
2013-06-29 10:37:00,78.4,74.7,29.81,South,170,4.0,8.0,88,0.00,,,1.36,meteohub,2013-06-29 15:37:00,
2013-06-29 10:42:00,78.4,74.7,29.81,SSW,209,5.0,8.0,88,0.00,,,1.36,meteohub,2013-06-29 15:42:00,
2013-06-29 10:47:00,78.6,74.8,29.81,SSW,201,7.0,9.0,88,0.00,,,1.36,meteohub,2013-06-29 15:47:00,
2013-06-29 10:52:00,78.8,74.7,29.81,South,171,6.0,11.0,87,0.00,,,1.36,meteohub,2013-06-29 15:52:00,
2013-06-29 10:57:00,79.2,75.4,29.81,South,185,1.0,11.0,88,0.00,,,1.36,meteohub,2013-06-29 15:57:00,
2013-06-29 11:02:00,79.5,75.0,29.81,SSW,192,7.0,11.0,86,0.00,,,1.36,meteohub,2013-06-29 16:02:00,
2013-06-29 11:07:00,80.1,75.6,29.81,SSW,209,8.0,11.0,86,0.00,,,1.36,meteohub,2013-06-29 16:07:00,
2013-06-29 11:12:00,80.1,75.2,29.81,SSE,163,7.0,12.0,85,0.00,,,1.36,meteohub,2013-06-29 16:12:00,
2013-06-29 11:17:00,80.2,75.4,29.81,South,182,4.0,13.0,85,0.00,,,1.36,meteohub,2013-06-29 16:17:00,
2013-06-29 11:22:00,80.1,75.2,29.81,SSW,200,9.0,13.0,85,0.00,,,1.36,meteohub,2013-06-29 16:22:00,
2013-06-29 11:27:00,80.8,75.9,29.81,SSW,206,5.0,13.0,85,0.00,,,1.36,meteohub,2013-06-29 16:27:00,
2013-06-29 11:37:00,81.7,75.9,29.81,SW,229,5.0,12.0,83,0.00,,,1.36,meteohub,2013-06-29 16:37:00,
2013-06-29 11:42:00,82.6,76.8,29.80,South,190,1.0,11.0,83,0.00,,,1.36,meteohub,2013-06-29 16:42:00,
2013-06-29 11:47:00,83.1,76.6,29.81,SSW,207,8.0,11.0,81,0.00,,,1.36,meteohub,2013-06-29 16:47:00,
2013-06-29 11:52:00,82.9,76.5,29.81,SW,218,9.0,10.0,81,0.00,,,1.36,meteohub,2013-06-29 16:52:00,
2013-06-29 11:57:00,82.2,76.1,29.81,South,183,1.0,10.0,82,0.00,,,1.36,meteohub,2013-06-29 16:57:00,
2013-06-29 12:02:00,81.7,75.9,29.81,South,189,1.0,10.0,83,0.00,,,1.36,meteohub,2013-06-29 17:02:00,
2013-06-29 12:07:00,81.3,76.1,29.81,SW,228,3.0,10.0,84,0.00,,,1.36,meteohub,2013-06-29 17:07:00,
2013-06-29 12:12:00,81.3,76.1,29.81,SSW,209,4.0,8.0,84,0.00,,,1.36,meteohub,2013-06-29 17:12:00,
2013-06-29 12:17:00,81.1,75.9,29.81,SW,224,7.0,8.0,84,0.00,,,1.36,meteohub,2013-06-29 17:17:00,
2013-06-29 12:22:00,81.0,75.7,29.81,SSW,213,1.0,8.0,84,0.00,,,1.36,meteohub,2013-06-29 17:22:00,
2013-06-29 12:27:00,81.1,75.9,29.80,SSW,192,1.0,8.0,84,0.00,,,1.36,meteohub,2013-06-29 17:27:00,
2013-06-29 12:32:00,81.3,76.5,29.80,SW,227,3.0,8.0,85,0.00,,,1.36,meteohub,2013-06-29 17:32:00,
2013-06-29 12:37:00,81.9,76.5,29.80,SW,214,3.0,7.0,84,0.00,,,1.36,meteohub,2013-06-29 17:37:00,
2013-06-29 12:42:00,82.0,76.3,29.80,South,171,5.0,6.0,83,0.00,,,1.36,meteohub,2013-06-29 17:42:00,
2013-06-29 12:47:00,82.2,76.5,29.80,SSW,211,6.0,7.0,83,0.00,,,1.36,meteohub,2013-06-29 17:47:00,
2013-06-29 12:52:00,82.9,76.8,29.80,SSW,200,3.0,7.0,82,0.00,,,1.36,meteohub,2013-06-29 17:52:00,
2013-06-29 12:57:00,83.8,77.4,29.80,WSW,240,2.0,8.0,81,0.00,,,1.36,meteohub,2013-06-29 17:57:00,
2013-06-29 13:02:00,84.9,77.7,29.80,West,279,6.0,8.0,79,0.00,,,1.36,meteohub,2013-06-29 18:02:00,
2013-06-29 13:07:00,85.5,77.0,29.79,SW,236,3.0,10.0,76,0.00,,,1.36,meteohub,2013-06-29 18:07:00,
2013-06-29 13:12:00,85.1,77.0,29.79,South,188,5.0,10.0,77,0.00,,,1.36,meteohub,2013-06-29 18:12:00,
2013-06-29 13:17:00,85.1,77.5,29.79,West,267,3.0,10.0,78,0.00,,,1.36,meteohub,2013-06-29 18:17:00,
2013-06-29 13:22:00,84.9,76.8,29.78,SSW,206,1.0,10.0,77,0.00,,,1.36,meteohub,2013-06-29 18:22:00,
2013-06-29 13:27:00,85.6,77.9,29.78,SW,216,0.0,10.0,78,0.00,,,1.36,meteohub,2013-06-29 18:27:00,
2013-06-29 13:32:00,87.1,78.6,29.78,SSW,196,2.0,10.0,76,0.00,,,1.36,meteohub,2013-06-29 18:32:00,
2013-06-29 13:37:00,87.1,78.3,29.78,SSW,194,3.0,11.0,75,0.00,,,1.36,meteohub,2013-06-29 18:37:00,
2013-06-29 13:42:00,87.1,78.3,29.78,SSW,194,2.0,11.0,75,0.00,,,1.36,meteohub,2013-06-29 18:42:00,
2013-06-29 13:47:00,86.9,78.1,29.78,SE,146,7.0,11.0,75,0.00,,,1.36,meteohub,2013-06-29 18:47:00,
2013-06-29 13:52:00,86.7,77.9,29.77,WSW,246,3.0,10.0,75,0.00,,,1.36,meteohub,2013-06-29 18:52:00,
2013-06-29 13:57:00,87.3,78.4,29.77,SSW,202,7.0,10.0,75,0.00,,,1.36,meteohub,2013-06-29 18:57:00,
2013-06-29 14:02:00,87.3,78.4,29.77,SW,217,7.0,10.0,75,0.00,,,1.36,meteohub,2013-06-29 19:02:00,
2013-06-29 14:07:00,87.3,78.4,29.77,WSW,238,5.0,10.0,75,0.00,,,1.36,meteohub,2013-06-29 19:07:00,
2013-06-29 14:12:00,87.3,77.9,29.77,SSW,204,4.0,10.0,74,0.00,,,1.36,meteohub,2013-06-29 19:12:00,
2013-06-29 14:17:00,86.9,78.4,29.77,SW,217,7.0,10.0,76,0.00,,,1.36,meteohub,2013-06-29 19:17:00,
2013-06-29 14:22:00,86.9,78.4,29.77,South,191,4.0,8.0,76,0.00,,,1.36,meteohub,2013-06-29 19:22:00,
2013-06-29 14:27:00,87.3,78.8,29.76,SSW,211,7.0,8.0,76,0.00,,,1.36,meteohub,2013-06-29 19:27:00,
2013-06-29 14:32:00,87.4,79.0,29.76,South,180,3.0,9.0,76,0.00,,,1.36,meteohub,2013-06-29 19:32:00,
2013-06-29 14:37:00,88.0,79.0,29.76,SW,226,5.0,9.0,75,0.00,,,1.36,meteohub,2013-06-29 19:37:00,
2013-06-29 14:42:00,88.2,78.8,29.76,WSW,246,6.0,9.0,74,0.00,,,1.36,meteohub,2013-06-29 19:42:00,
2013-06-29 14:52:00,88.2,79.2,29.75,SW,223,3.0,11.0,75,0.00,,,1.36,meteohub,2013-06-29 19:52:00,
2013-06-29 14:57:00,88.5,78.8,29.75,SSW,205,0.0,11.0,73,0.00,,,1.36,meteohub,2013-06-29 19:57:00,
2013-06-29 15:02:00,88.9,79.2,29.74,South,187,3.0,11.0,73,0.00,,,1.36,meteohub,2013-06-29 20:02:00,
2013-06-29 15:07:00,88.9,79.2,29.74,South,182,4.0,9.0,73,0.00,,,1.36,meteohub,2013-06-29 20:07:00,
2013-06-29 15:12:00,88.7,79.0,29.74,WSW,244,3.0,9.0,73,0.00,,,1.36,meteohub,2013-06-29 20:12:00,
2013-06-29 15:17:00,88.9,79.5,29.74,West,261,6.0,11.0,74,0.00,,,1.36,meteohub,2013-06-29 20:17:00,
2013-06-29 15:22:00,88.5,78.8,29.73,WSW,248,2.0,11.0,73,0.00,,,1.36,meteohub,2013-06-29 20:22:00,
2013-06-29 15:27:00,88.7,79.0,29.73,WSW,246,2.0,10.0,73,0.00,,,1.36,meteohub,2013-06-29 20:27:00,
2013-06-29 15:32:00,89.1,79.3,29.73,SSW,211,1.0,10.0,73,0.00,,,1.36,meteohub,2013-06-29 20:32:00,
2013-06-29 15:37:00,89.4,79.2,29.73,SW,225,2.0,9.0,72,0.00,,,1.36,meteohub,2013-06-29 20:37:00,
2013-06-29 15:42:00,89.4,79.2,29.73,South,189,2.0,7.0,72,0.00,,,1.36,meteohub,2013-06-29 20:42:00,
2013-06-29 15:47:00,90.0,79.7,29.73,WSW,237,2.0,6.0,72,0.00,,,1.36,meteohub,2013-06-29 20:47:00,
2013-06-29 15:52:00,89.6,79.3,29.72,South,186,1.0,7.0,72,0.00,,,1.36,meteohub,2013-06-29 20:52:00,
2013-06-29 15:57:00,89.1,79.3,29.73,NNE,24,3.0,11.0,73,0.00,,,1.36,meteohub,2013-06-29 20:57:00,
2013-06-29 16:02:00,88.5,79.2,29.73,ENE,76,0.0,11.0,74,0.00,,,1.36,meteohub,2013-06-29 21:02:00,
2013-06-29 16:07:00,88.3,79.3,29.73,WSW,244,0.0,7.0,75,0.00,,,1.36,meteohub,2013-06-29 21:07:00,
2013-06-29 16:12:00,88.3,79.3,29.73,South,178,0.0,4.0,75,0.00,,,1.36,meteohub,2013-06-29 21:12:00,
2013-06-29 16:17:00,87.8,79.3,29.72,SSW,203,2.0,4.0,76,0.00,,,1.36,meteohub,2013-06-29 21:17:00,
2013-06-29 16:22:00,87.6,79.5,29.73,SW,236,3.0,5.0,77,0.00,,,1.36,meteohub,2013-06-29 21:22:00,
2013-06-29 16:27:00,87.4,79.7,29.72,SW,236,0.0,5.0,78,0.00,,,1.36,meteohub,2013-06-29 21:27:00,
2013-06-29 16:37:00,87.4,79.7,29.72,SSW,196,2.0,5.0,78,0.00,,,1.36,meteohub,2013-06-29 21:37:00,
2013-06-29 16:42:00,87.4,79.0,29.72,WSW,240,5.0,5.0,76,0.00,,,1.36,meteohub,2013-06-29 21:42:00,
2013-06-29 16:47:00,87.6,79.9,29.72,WSW,240,0.0,6.0,78,0.00,,,1.36,meteohub,2013-06-29 21:47:00,
2013-06-29 16:52:00,87.4,79.3,29.71,SSW,208,4.0,6.0,77,0.00,,,1.36,meteohub,2013-06-29 21:52:00,
2013-06-29 16:57:00,87.1,79.0,29.70,WSW,237,4.0,6.0,77,0.00,,,1.36,meteohub,2013-06-29 21:57:00,
2013-06-29 17:02:00,86.7,79.3,29.70,South,183,1.0,5.0,79,0.00,,,1.36,meteohub,2013-06-29 22:02:00,
2013-06-29 17:07:00,86.4,79.0,29.70,SW,219,1.0,5.0,79,0.00,,,1.36,meteohub,2013-06-29 22:07:00,
2013-06-29 17:12:00,86.2,79.3,29.71,SSW,193,2.0,5.0,80,0.00,,,1.36,meteohub,2013-06-29 22:12:00,
2013-06-29 17:17:00,85.6,79.2,29.71,SW,225,1.0,5.0,81,0.00,,,1.36,meteohub,2013-06-29 22:17:00,
2013-06-29 17:22:00,85.5,79.3,29.71,SW,225,0.0,5.0,82,0.00,,,1.36,meteohub,2013-06-29 22:22:00,
2013-06-29 17:27:00,85.3,79.5,29.70,SW,226,0.0,4.0,83,0.00,,,1.36,meteohub,2013-06-29 22:27:00,
2013-06-29 17:32:00,85.1,79.3,29.70,SW,225,0.0,4.0,83,0.00,,,1.36,meteohub,2013-06-29 22:32:00,
2013-06-29 17:37:00,85.1,79.7,29.71,SW,225,0.0,2.0,84,0.00,,,1.36,meteohub,2013-06-29 22:37:00,
2013-06-29 17:42:00,85.3,79.9,29.71,SW,225,0.0,1.0,84,0.00,,,1.36,meteohub,2013-06-29 22:42:00,
2013-06-29 17:47:00,85.3,79.2,29.70,SSW,213,1.0,1.0,82,0.00,,,1.36,meteohub,2013-06-29 22:47:00,
2013-06-29 17:52:00,85.6,79.5,29.70,SSW,213,0.0,3.0,82,0.00,,,1.36,meteohub,2013-06-29 22:52:00,
2013-06-29 17:57:00,85.8,79.3,29.70,SSW,213,0.0,3.0,81,0.00,,,1.36,meteohub,2013-06-29 22:57:00,
2013-06-29 18:02:00,86.4,79.9,29.70,SSW,213,1.0,3.0,81,0.00,,,1.36,meteohub,2013-06-29 23:02:00,
2013-06-29 18:07:00,86.4,79.5,29.70,SSW,213,2.0,2.0,80,0.00,,,1.36,meteohub,2013-06-29 23:07:00,
2013-06-29 18:12:00,86.4,79.5,29.70,SSW,213,0.0,4.0,80,0.00,,,1.36,meteohub,2013-06-29 23:12:00,
2013-06-29 18:17:00,86.4,79.9,29.70,SSW,213,0.0,4.0,81,0.00,,,1.36,meteohub,2013-06-29 23:17:00,
2013-06-29 18:22:00,86.4,79.9,29.70,SSW,203,2.0,4.0,81,0.00,,,1.36,meteohub,2013-06-29 23:22:00,
2013-06-29 18:27:00,86.4,79.9,29.70,SSW,203,0.0,4.0,81,0.00,,,1.36,meteohub,2013-06-29 23:27:00,
2013-06-29 18:32:00,86.4,80.2,29.70,SSW,203,0.0,4.0,82,0.00,,,1.36,meteohub,2013-06-29 23:32:00,
2013-06-29 18:37:00,86.4,80.2,29.70,SSW,203,2.0,2.0,82,0.00,,,1.36,meteohub,2013-06-29 23:37:00,
2013-06-29 18:42:00,86.2,80.1,29.69,SSW,203,0.0,3.0,82,0.00,,,1.36,meteohub,2013-06-29 23:42:00,
2013-06-29 18:47:00,85.8,79.7,29.69,SSW,203,0.0,3.0,82,0.00,,,1.36,meteohub,2013-06-29 23:47:00,
2013-06-29 18:52:00,85.6,79.5,29.69,SSW,203,0.0,3.0,82,0.00,,,1.36,meteohub,2013-06-29 23:52:00,
2013-06-29 18:57:00,85.5,79.7,29.69,SSW,203,1.0,2.0,83,0.00,,,1.36,meteohub,2013-06-29 23:57:00,
2013-06-29 19:02:00,85.3,79.5,29.69,SSW,203,0.0,2.0,83,0.00,,,1.36,meteohub,2013-06-30 00:02:00,
2013-06-29 19:07:00,85.3,79.5,29.69,SSW,203,1.0,2.0,83,0.00,,,1.36,meteohub,2013-06-30 00:07:00,
2013-06-29 19:12:00,85.5,79.7,29.69,SSW,203,0.0,2.0,83,0.00,,,1.36,meteohub,2013-06-30 00:12:00,
2013-06-29 19:17:00,85.5,79.7,29.69,SSW,203,0.0,2.0,83,0.00,,,1.36,meteohub,2013-06-30 00:17:00,
2013-06-29 19:22:00,85.3,79.5,29.70,SSW,203,0.0,2.0,83,0.00,,,1.36,meteohub,2013-06-30 00:22:00,
2013-06-29 19:27:00,85.3,79.9,29.69,SSW,203,0.0,2.0,84,0.00,,,1.36,meteohub,2013-06-30 00:27:00,
2013-06-29 19:32:00,85.1,79.7,29.70,SSW,203,0.0,2.0,84,0.00,,,1.36,meteohub,2013-06-30 00:32:00,
2013-06-29 19:37:00,84.9,79.5,29.70,SSW,203,0.0,2.0,84,0.00,,,1.36,meteohub,2013-06-30 00:37:00,
2013-06-29 19:42:00,84.7,79.7,29.70,SSW,203,0.0,1.0,85,0.00,,,1.36,meteohub,2013-06-30 00:42:00,
2013-06-29 19:47:00,84.6,79.5,29.70,SSW,203,0.0,1.0,85,0.00,,,1.36,meteohub,2013-06-30 00:47:00,
2013-06-29 19:52:00,84.4,79.7,29.71,SSW,203,0.0,1.0,86,0.00,,,1.36,meteohub,2013-06-30 00:52:00,
2013-06-29 19:57:00,84.2,79.9,29.72,SSW,203,1.0,2.0,87,0.00,,,1.36,meteohub,2013-06-30 00:57:00,
2013-06-29 20:02:00,83.8,79.5,29.72,SSW,203,0.0,3.0,87,0.00,,,1.36,meteohub,2013-06-30 01:02:00,
2013-06-29 20:07:00,83.8,79.9,29.72,SSW,203,0.0,3.0,88,0.00,,,1.36,meteohub,2013-06-30 01:07:00,
2013-06-29 20:12:00,83.7,79.7,29.72,SSW,203,0.0,2.0,88,0.00,,,1.36,meteohub,2013-06-30 01:12:00,
2013-06-29 20:17:00,83.7,79.7,29.72,SSW,203,0.0,1.0,88,0.00,,,1.36,meteohub,2013-06-30 01:17:00,
2013-06-29 20:22:00,83.7,79.7,29.72,SSW,203,0.0,1.0,88,0.00,,,1.36,meteohub,2013-06-30 01:22:00,
2013-06-29 20:27:00,83.7,79.7,29.72,SSW,203,1.0,1.0,88,0.00,,,1.36,meteohub,2013-06-30 01:27:00,
2013-06-29 20:32:00,83.3,79.3,29.72,SSW,203,0.0,2.0,88,0.00,,,1.36,meteohub,2013-06-30 01:32:00,
2013-06-29 20:37:00,83.1,79.2,29.72,SSW,203,1.0,2.0,88,0.00,,,1.36,meteohub,2013-06-30 01:37:00,
2013-06-29 20:42:00,83.1,79.5,29.72,WSW,256,2.0,3.0,89,0.00,,,1.36,meteohub,2013-06-30 01:42:00,
2013-06-29 20:47:00,82.9,79.3,29.73,WSW,256,1.0,3.0,89,0.00,,,1.36,meteohub,2013-06-30 01:47:00,
2013-06-29 20:52:00,82.9,79.3,29.72,WSW,256,1.0,3.0,89,0.00,,,1.36,meteohub,2013-06-30 01:52:00,
2013-06-29 20:57:00,82.9,79.3,29.73,NNW,339,4.0,4.0,89,0.00,,,1.36,meteohub,2013-06-30 01:57:00,
2013-06-29 21:02:00,82.8,79.2,29.73,North,355,0.0,6.0,89,0.00,,,1.36,meteohub,2013-06-30 02:02:00,
2013-06-29 21:07:00,82.8,79.2,29.73,North,355,1.0,6.0,89,0.00,,,1.36,meteohub,2013-06-30 02:07:00,
2013-06-29 21:12:00,82.6,79.0,29.73,North,355,2.0,6.0,89,0.00,,,1.36,meteohub,2013-06-30 02:12:00,
2013-06-29 21:17:00,82.4,78.8,29.73,North,355,3.0,4.0,89,0.00,,,1.36,meteohub,2013-06-30 02:17:00,
2013-06-29 21:22:00,82.2,79.0,29.74,NNW,344,5.0,5.0,90,0.00,,,1.36,meteohub,2013-06-30 02:22:00,
2013-06-29 21:27:00,82.2,79.0,29.74,NNW,345,1.0,6.0,90,0.00,,,1.36,meteohub,2013-06-30 02:27:00,
2013-06-29 21:32:00,82.4,79.2,29.74,NNW,346,0.0,6.0,90,0.00,,,1.36,meteohub,2013-06-30 02:32:00,
2013-06-29 21:37:00,82.2,79.0,29.74,NNW,345,2.0,6.0,90,0.00,,,1.36,meteohub,2013-06-30 02:37:00,
2013-06-29 21:42:00,82.2,79.0,29.74,NNW,346,1.0,3.0,90,0.00,,,1.36,meteohub,2013-06-30 02:42:00,
2013-06-29 21:47:00,82.2,79.0,29.75,NNW,346,0.0,3.0,90,0.00,,,1.36,meteohub,2013-06-30 02:47:00,
2013-06-29 21:52:00,82.2,79.0,29.75,NNW,346,1.0,3.0,90,0.00,,,1.36,meteohub,2013-06-30 02:52:00,
2013-06-29 21:57:00,82.0,78.8,29.75,NNW,346,1.0,3.0,90,0.00,,,1.36,meteohub,2013-06-30 02:57:00,
2013-06-29 22:02:00,82.0,78.8,29.75,NNW,345,0.0,2.0,90,0.00,,,1.36,meteohub,2013-06-30 03:02:00,
2013-06-29 22:07:00,81.9,79.0,29.75,NNW,346,0.0,2.0,91,0.00,,,1.36,meteohub,2013-06-30 03:07:00,
2013-06-29 22:12:00,81.7,78.8,29.75,NNW,345,0.0,2.0,91,0.00,,,1.36,meteohub,2013-06-30 03:12:00,
2013-06-29 22:17:00,81.7,78.8,29.75,NNW,345,0.0,1.0,91,0.00,,,1.36,meteohub,2013-06-30 03:17:00,
2013-06-29 22:22:00,81.3,78.4,29.75,NNW,346,0.0,1.0,91,0.00,,,1.36,meteohub,2013-06-30 03:22:00,
2013-06-29 22:27:00,81.1,78.3,29.75,NNW,346,0.0,1.0,91,0.00,,,1.36,meteohub,2013-06-30 03:27:00,
2013-06-29 22:32:00,81.1,78.3,29.75,NNW,346,0.0,1.0,91,0.00,,,1.36,meteohub,2013-06-30 03:32:00,
2013-06-29 22:37:00,81.0,78.1,29.75,NNW,346,0.0,1.0,91,0.00,,,1.36,meteohub,2013-06-30 03:37:00,
2013-06-29 22:42:00,80.8,78.3,29.75,NNW,346,0.0,1.0,92,0.00,,,1.36,meteohub,2013-06-30 03:42:00,
2013-06-29 22:47:00,80.4,77.9,29.75,NNW,346,0.0,1.0,92,0.00,,,1.36,meteohub,2013-06-30 03:47:00,
2013-06-29 22:52:00,80.4,77.9,29.75,NNW,346,0.0,1.0,92,0.00,,,1.36,meteohub,2013-06-30 03:52:00,
2013-06-29 22:57:00,80.2,77.7,29.75,NNW,346,0.0,1.0,92,0.00,,,1.36,meteohub,2013-06-30 03:57:00,
2013-06-29 23:02:00,80.1,77.5,29.75,NNW,346,0.0,0.0,92,0.00,,,1.36,meteohub,2013-06-30 04:02:00,
2013-06-29 23:07:00,79.9,77.4,29.75,NNW,346,0.0,0.0,92,0.00,,,1.36,meteohub,2013-06-30 04:07:00,
2013-06-29 23:12:00,79.9,77.4,29.75,NNW,346,0.0,0.0,92,0.00,,,1.36,meteohub,2013-06-30 04:12:00,
2013-06-29 23:17:00,79.9,77.7,29.75,NNW,346,0.0,1.0,93,0.00,,,1.36,meteohub,2013-06-30 04:17:00,
2013-06-29 23:22:00,79.9,77.7,29.76,NNW,346,0.0,1.0,93,0.00,,,1.36,meteohub,2013-06-30 04:22:00,
2013-06-29 23:27:00,79.9,77.7,29.76,NNW,346,0.0,1.0,93,0.00,,,1.36,meteohub,2013-06-30 04:27:00,
2013-06-29 23:32:00,79.5,77.4,29.76,NNW,346,0.0,0.0,93,0.00,,,1.36,meteohub,2013-06-30 04:32:00,
2013-06-29 23:37:00,79.3,76.8,29.76,NNW,346,0.0,0.0,92,0.00,,,1.36,meteohub,2013-06-30 04:37:00,
2013-06-29 23:42:00,79.3,76.8,29.76,NNW,346,0.0,1.0,92,0.00,,,1.36,meteohub,2013-06-30 04:42:00,
2013-06-29 23:47:00,79.2,76.6,29.76,NNW,345,0.0,1.0,92,0.00,,,1.36,meteohub,2013-06-30 04:47:00,
2013-06-29 23:52:00,79.0,76.5,29.76,NNW,346,0.0,1.0,92,0.00,,,1.36,meteohub,2013-06-30 04:52:00,
2013-06-29 23:57:00,78.8,76.3,29.76,NNW,346,0.0,1.0,92,0.00,,,1.36,meteohub,2013-06-30 04:57:00,